Probability
0 0 0 0 0 0 0 0 0 0 0 0 0 0 0 0 13 35 58 81 87 90 94 94 100 94 84 77 77 87 94 77 74 74 74 65 65 68 68 61 74 71 74 81
0 0 0 0 0 0 0 0 0 0 0 0 0 0 0 0 3 13 58 84 100 97 97 97 87 74 68 61 58 65 65 61 61 58 58 52 52 52 55 55 48 45 55 58
0 0 0 0 0 0 0 0 0 0 0 0 0 0 0 0 3 10 52 68 97 94 90 84 77 52 45 39 39 42 45 48 45 39 32 16 6 6 6 6 10 13 26 42
0 0 0 0 0 0 0 0 0 0 0 0 0 0 0 0 6 10 23 48 61 77 71 65 52 42 32 26 16 23 29 32 32 26 13 6 3 3 3 3 3 3 3 6
0 0 0 0 0 0 0 0 0 0 0 0 0 0 0 0 6 6 10 13 23 45 45 35 39 26 16 10 3 3 6 10 10 10 3 0 0 0 0 0 0 0 0 0
0 0 0 0 0 0 0 0 0 0 0 0 0 0 0 0 0 0 0 3 3 6 13 19 6 3 0 0 0 0 3 0 3 6 6 3 0 0 0 0 0 0 0 0
0 0 0 0 0 0 0 0 0 0 0 0 0 0 0 0 0 0 0 0 3 3 0 0 0 0 0 0 0 0 0 0 3 6 6 3 0 0 0 0 0 0 0 0
0 0 0 0 0 0 0 0 0 0 0 0 0 0 0 0 0 0 0 0 0 0 0 0 0 0 0 0 0 0 0 0 0 0 0 0 0 0 0 0 0 0 0 0
0 0 0 0 0 0 0 0 0 0 0 0 0 0 0 0 0 0 0 0 0 0 0 0 0 0 0 0 0 0 0 0 0 0 0 0 0 0 0 0 0 0 0 0
0 0 0 0 0 0 0 0 0 0 0 0 0 0 0 0 0 0 0 0 0 0 0 0 0 0 0 0 0 0 0 0 0 0 0 0 0 0 0 0 0 0 0 0
0 0 0 0 0 0 0 0 0 0 0 0 0 0 0 0 0 0 0 0 0 0 0 0 0 0 0 0 0 0 0 0 0 0 0 0 0 0 0 0 0 0 0 0
0 0 0 0 0 0 0 0 0 0 0 0 0 0 0 0 0 0 0 0 0 0 0 0 0 0 0 0 0 0 0 0 0 0 0 0 0 0 0 0 0 0 0 0
0 0 0 0 0 0 0 0 0 0 0 0 0 0 0 0 0 0 0 0 0 0 0 0 0 0 0 0 0 0 0 0 0 0 0 0 0 0 0 0 0 0 0 0
0 0 0 0 0 0 0 0 0 0 0 0 0 0 0 0 0 0 0 0 0 0 0 0 0 0 0 0 0 0 0 0 0 0 0 0 0 0 0 0 0 0 0 0
0 0 0 0 0 0 0 0 0 0 0 0 0 0 0 0 0 0 0 0 0 0 0 0 0 0 0 0 0 0 0 0 0 0 0 0 0 0 0 0 0 0 0 0
0 0 0 0 0 0 0 0 0 0 0 0 0 0 0 0 0 0 0 0 0 0 0 0 0 0 0 0 0 0 0 0 0 0 0 0 0 0 0 0 0 0 0 0
0 0 0 0 0 0 0 0 0 0 0 0 0 0 0 0 0 0 0 0 0 0 0 0 0 0 0 0 0 0 0 0 0 0 0 0 0 0 0 0 0 0 0 0
0 0 0 0 0 0 0 0 0 0 0 0 0 0 0 0 0 0 0 0 0 0 0 0 0 0 0 0 0 0 0 0 0 0 0 0 0 0 0 0 0 0 0 0
0 0 0 0 0 0 0 0 0 0 0 0 0 0 0 0 0 0 0 0 0 0 0 0 0 0 0 0 0 0 0 0 0 0 0 0 0 0 0 0 0 0 0 0
0 0 0 0 0 0 0 0 0 0 0 0 0 0 0 0 0 0 0 0 0 0 0 0 0 0 0 0 0 0 0 0 0 0 0 0 0 0 0 0 0 0 0 0
0 0 0 0 0 0 0 0 0 0 0 0 0 0 0 0 0 0 0 0 0 0 0 0 0 0 0 0 0 0 0 0 0 0 0 0 0 0 0 0 0 0 0 0
0 0 0 0 0 0 0 0 0 0 0 0 0 0 0 0 0 0 0 0 0 0 0 0 0 0 0 0 0 0 0 0 0 0 0 0 0 0 0 0 0 0 0 0
0 0 0 0 0 0 0 0 0 0 0 0 0 0 0 0 0 0 0 0 0 0 0 0 0 0 0 0 0 0 0 0 0 0 0 0 0 0 0 0 0 0 0 0
0 0 0 0 0 0 0 0 0 0 0 0 0 0 0 0 0 0 0 0 0 0 0 0 0 0 0 0 0 0 0 0 0 0 0 0 0 0 0 0 0 0 0 0
0 0 0 0 0 0 0 0 0 0 0 0 0 0 0 0 0 0 0 0 0 0 0 0 0 0 0 0 0 0 0 0 0 0 0 0 0 0 0 0 0 0 0 0
0 0 0 0 0 0 0 0 0 0 0 0 0 0 0 0 0 0 0 0 0 0 0 0 0 0 0 0 0 0 0 0 0 0 0 0 0 0 0 0 0 0 0 0
Height
5878 5880 5881 5883 5885 5888 5889 5890 5891 5891 5891 5892 5891 5892 5892 5893 5893 5891 5889 5889 5888 5888 5887 5886 5884 5881 5877 5873 5869 5865 5861 5858 5855 5853 5852 5851 5849 5847 5846 5844 5842 5839 5837 5835
5876 5877 5879 5880 5882 5883 5884 5885 5885 5885 5886 5887 5887 5887 5887 5888 5887 5885 5882 5881 5880 5880 5880 5879 5876 5873 5870 5866 5862 5858 5854 5850 5847 5844 5842 5840 5839 5837 5836 5834 5832 5829 5827 5825
5874 5876 5876 5878 5879 5880 5880 5880 5881 5881 5882 5882 5882 5882 5881 5880 5879 5878 5877 5875 5874 5874 5873 5871 5868 5865 5862 5858 5855 5851 5847 5843 5839 5836 5833 5830 5828 5827 5825 5824 5822 5820 5817 5815
5872 5873 5874 5875 5876 5876 5875 5875 5876 5877 5878 5878 5877 5874 5876 5874 5872 5871 5871 5869 5868 5867 5866 5864 5861 5858 5855 5851 5847 5842 5838 5834 5831 5828 5825 5822 5819 5817 5815 5813 5812 5810 5808 5806
5870 5871 5871 5872 5872 5871 5871 5871 5871 5871 5871 5871 5870 5869 5870 5868 5866 5865 5864 5862 5862 5861 5859 5857 5855 5851 5847 5842 5838 5834 5829 5825 5822 5819 5816 5813 5811 5808 5806 5804 5802 5801 5799 5796
5869 5869 5869 5869 5868 5868 5867 5867 5866 5866 5865 5866 5865 5864 5864 5861 5860 5858 5857 5857 5856 5855 5854 5851 5848 5843 5838 5834 5829 5825 5821 5817 5813 5809 5806 5803 5801 5798 5796 5794 5792 5791 5789 5787
5867 5867 5867 5867 5866 5866 5865 5865 5865 5863 5862 5862 5860 5858 5858 5856 5854 5853 5852 5851 5850 5848 5846 5842 5838 5834 5830 5826 5822 5817 5813 5808 5804 5799 5795 5792 5789 5786 5784 5782 5781 5779 5778 5776
5866 5866 5865 5865 5864 5864 5863 5862 5863 5862 5860 5859 5856 5854 5853 5851 5849 5847 5845 5843 5841 5838 5836 5832 5829 5825 5822 5818 5814 5810 5805 5800 5795 5790 5785 5781 5777 5774 5771 5769 5768 5766 5765 5763
5864 5865 5864 5863 5862 5862 5861 5860 5859 5858 5857 5856 5853 5851 5848 5845 5843 5841 5838 5836 5834 5832 5829 5826 5822 5819 5816 5812 5808 5802 5797 5792 5786 5781 5776 5771 5767 5763 5760 5757 5755 5753 5751 5750
5863 5863 5862 5861 5860 5860 5859 5858 5857 5855 5854 5852 5852 5849 5846 5842 5839 5837 5834 5832 5830 5827 5823 5820 5817 5814 5810 5806 5801 5796 5791 5785 5779 5773 5768 5763 5758 5753 5750 5747 5744 5741 5739 5737
5862 5861 5860 5858 5857 5856 5856 5855 5853 5852 5850 5848 5847 5849 5842 5839 5835 5833 5831 5828 5825 5821 5818 5814 5811 5807 5804 5800 5795 5790 5784 5778 5772 5767 5761 5755 5750 5745 5741 5737 5734 5731 5728 5725
5861 5860 5858 5857 5856 5854 5853 5852 5850 5848 5846 5844 5842 5843 5836 5833 5830 5828 5825 5822 5818 5814 5811 5807 5803 5799 5796 5792 5787 5782 5777 5771 5765 5760 5754 5748 5742 5737 5733 5729 5725 5722 5719 5716
5860 5859 5857 5855 5856 5853 5851 5849 5846 5844 5841 5839 5836 5836 5830 5828 5825 5822 5819 5815 5811 5807 5803 5798 5794 5790 5786 5782 5778 5773 5768 5763 5758 5752 5747 5741 5735 5730 5725 5721 5718 5714 5711 5708
5858 5857 5856 5855 5851 5849 5847 5845 5842 5839 5836 5833 5831 5828 5825 5823 5819 5815 5812 5808 5803 5799 5794 5789 5784 5779 5775 5771 5767 5763 5759 5754 5749 5744 5739 5734 5729 5723 5719 5715 5712 5708 5705 5701
5856 5854 5852 5850 5847 5845 5842 5840 5837 5834 5830 5827 5824 5821 5818 5815 5811 5806 5802 5798 5793 5788 5783 5778 5773 5768 5763 5759 5756 5752 5749 5745 5741 5736 5732 5727 5722 5717 5713 5709 5706 5703 5699 5696
5852 5850 5848 5846 5842 5840 5837 5834 5831 5827 5823 5820 5817 5814 5810 5805 5800 5796 5791 5786 5781 5776 5771 5766 5761 5756 5751 5747 5744 5741 5738 5735 5731 5728 5723 5719 5715 5710 5707 5704 5701 5697 5694 5692
5849 5847 5844 5842 5839 5836 5832 5829 5825 5821 5816 5813 5809 5806 5801 5795 5789 5784 5779 5773 5767 5762 5757 5752 5747 5743 5738 5734 5731 5728 5726 5724 5721 5718 5715 5711 5707 5703 5701 5698 5695 5692 5690 5688
5845 5842 5839 5835 5833 5829 5826 5821 5817 5812 5808 5804 5799 5794 5789 5783 5777 5770 5764 5757 5751 5746 5740 5735 5730 5726 5722 5719 5716 5714 5713 5711 5709 5707 5705 5702 5699 5696 5694 5692 5690 5688 5685 5684
5839 5835 5831 5827 5824 5821 5817 5812 5806 5801 5797 5793 5788 5781 5775 5769 5763 5757 5749 5742 5735 5728 5722 5717 5712 5708 5704 5701 5699 5699 5698 5698 5697 5696 5694 5692 5690 5688 5687 5686 5684 5683 5681 5680
5833 5829 5825 5820 5815 5811 5810 5804 5796 5790 5784 5780 5773 5767 5760 5753 5746 5741 5733 5726 5718 5711 5703 5697 5692 5687 5684 5681 5680 5680 5681 5681 5682 5682 5682 5681 5680 5679 5679 5678 5678 5677 5676 5676
5826 5822 5818 5813 5807 5801 5797 5791 5786 5781 5774 5765 5758 5750 5743 5734 5726 5719 5710 5702 5694 5687 5680 5673 5667 5663 5659 5656 5656 5656 5659 5662 5664 5666 5667 5669 5669 5669 5669 5670 5671 5671 5671 5671
5819 5815 5810 5804 5798 5794 5787 5780 5774 5767 5759 5750 5742 5733 5724 5715 5706 5696 5688 5679 5670 5662 5654 5646 5639 5634 5629 5625 5625 5628 5633 5638 5643 5647 5651 5654 5657 5658 5659 5661 5663 5664 5664 5665
5811 5807 5800 5795 5790 5782 5774 5767 5760 5752 5744 5734 5724 5714 5703 5694 5684 5674 5664 5655 5646 5637 5629 5622 5615 5610 5604 5599 5597 5600 5607 5613 5620 5626 5633 5638 5642 5645 5648 5652 5654 5657 5658 5659
5803 5796 5791 5784 5778 5771 5764 5756 5747 5737 5727 5716 5704 5692 5680 5669 5659 5649 5640 5631 5623 5616 5610 5603 5597 5591 5585 5579 5576 5577 5582 5590 5598 5606 5614 5621 5627 5632 5636 5641 5646 5649 5651 5653
5795 5789 5782 5775 5768 5761 5752 5741 5731 5719 5707 5695 5683 5671 5657 5645 5636 5627 5620 5613 5607 5602 5596 5589 5582 5576 5571 5565 5561 5559 5563 5569 5578 5587 5596 5605 5612 5618 5624 5630 5636 5641 5644 5647
5787 5781 5774 5766 5757 5748 5737 5725 5713 5700 5686 5673 5660 5649 5638 5625 5615 5609 5603 5598 5593 5588 5582 5575 5568 5562 5557 5552 5548 5546 5547 5553 5560 5570 5579 5588 5597 5605 5612 5619 5626 5632 5637 5640
Wind_Speed
13 15 17 18 18 19 19 17 18 20 22 23 24 26 27 27 26 30 34 36 35 33 32 31 31 31 32 34 36 38 38 39 40 40 39 39 38 38 38 38 39 40 41 42
14 15 13 12 11 13 14 17 21 24 25 25 26 28 30 31 32 33 36 36 35 32 29 29 30 32 32 33 35 36 36 38 39 40 40 40 39 38 38 39 39 40 41 42
14 11 9 8 9 12 15 19 21 24 25 27 30 31 32 34 35 34 34 34 31 28 27 29 32 32 33 33 33 33 34 35 36 37 38 39 38 37 36 36 36 37 38 38
9 10 9 9 11 15 18 20 21 20 24 28 32 35 32 33 33 31 29 27 25 24 26 29 31 32 32 32 32 33 34 35 37 37 38 38 38 38 37 36 35 35 36 36
8 10 11 11 12 15 17 18 18 17 18 20 24 26 22 22 21 21 21 22 21 22 24 27 29 31 31 32 33 34 36 38 39 40 39 39 40 40 40 39 38 37 37 37
7 8 8 8 8 9 10 10 11 12 12 13 14 16 13 13 13 15 16 18 19 22 25 27 29 31 32 33 34 35 37 39 41 42 42 42 42 42 42 41 40 39 39 39
4 4 4 4 3 4 5 5 5 7 9 9 12 14 14 14 16 18 20 22 24 25 26 27 28 31 32 33 33 35 37 39 40 41 42 43 44 44 44 43 43 42 41 41
4 4 5 4 4 3 5 6 5 4 5 5 11 15 16 17 19 21 24 25 26 27 28 29 31 32 34 34 35 36 37 38 39 40 41 41 42 43 44 45 45 45 44 44
9 7 7 9 8 7 7 8 8 8 7 7 11 16 20 22 24 25 26 27 28 29 30 31 33 34 35 36 37 38 39 40 41 41 40 40 40 40 41 43 45 46 46 46
11 8 7 9 10 9 10 10 11 11 11 9 7 10 17 21 24 26 27 28 29 30 32 33 34 35 36 37 37 39 40 40 41 42 41 40 39 39 39 40 41 43 44 45
11 8 7 9 9 10 11 11 12 13 14 15 12 10 18 20 23 25 27 29 31 33 34 35 36 36 36 36 37 38 39 40 41 42 42 41 39 38 37 37 38 39 39 40
9 7 7 8 9 10 11 13 14 16 17 19 20 18 21 24 26 28 30 33 35 36 37 38 39 40 39 38 38 38 39 39 40 41 40 40 39 37 36 35 35 35 35 35
9 8 9 10 11 11 13 14 17 19 20 21 22 25 26 28 30 31 33 34 36 38 40 41 42 43 42 41 40 39 39 39 39 40 40 39 38 35 34 33 32 32 31 31
11 11 11 12 14 16 16 17 19 22 25 25 26 28 29 29 30 32 34 36 38 41 43 44 44 45 45 45 43 41 40 39 39 39 38 38 36 34 32 31 30 29 28 27
15 14 15 16 18 19 20 21 23 26 29 30 30 30 31 32 34 36 38 40 42 44 45 46 47 48 48 48 46 43 40 39 38 37 37 36 35 32 31 29 28 26 24 23
18 18 17 18 21 22 24 25 27 29 30 30 31 32 34 37 39 41 43 45 47 48 49 49 50 50 50 49 48 46 42 39 38 37 36 35 33 31 29 28 26 24 22 20
20 19 19 19 21 23 26 28 28 28 29 31 34 36 38 41 45 47 48 51 53 54 54 54 53 52 51 50 49 47 45 41 39 37 36 34 32 29 28 27 24 22 20 18
23 23 24 24 24 26 28 28 29 30 33 34 37 40 42 45 48 52 54 56 59 60 60 59 59 58 56 54 52 49 47 44 41 39 36 34 32 29 27 25 23 20 17 16
27 28 29 30 31 31 32 33 35 38 40 39 42 44 47 50 53 56 58 61 64 65 66 66 65 64 62 60 57 54 50 47 44 41 38 36 32 29 26 24 22 19 16 15
30 30 31 32 34 36 37 38 40 43 46 46 47 50 54 57 60 62 64 65 67 69 70 71 70 69 67 65 62 60 55 51 47 43 40 37 33 30 26 24 21 19 16 14
31 32 33 35 38 41 42 42 44 46 49 52 55 57 60 63 66 69 71 73 74 76 76 76 76 75 73 71 68 64 59 54 50 46 42 38 35 32 27 24 22 20 17 15
33 34 35 38 40 42 43 46 48 50 53 56 59 62 66 69 72 74 76 78 78 78 77 76 74 72 72 71 69 65 60 56 52 49 44 39 36 33 29 26 24 21 18 15
35 36 37 39 41 44 46 49 52 54 57 61 65 68 72 74 76 78 78 77 75 73 67 62 60 59 58 58 59 58 56 54 52 51 47 41 37 34 31 28 25 22 19 16
35 36 38 40 43 45 48 52 56 60 64 68 71 74 76 78 79 78 73 68 61 53 50 49 48 48 46 46 47 48 50 52 52 50 46 43 39 36 33 31 28 24 20 17
35 36 39 42 45 49 53 58 62 66 70 72 74 75 75 75 70 64 56 47 42 42 43 43 44 44 42 41 39 39 44 46 50 48 45 44 41 37 35 34 30 25 22 19
35 38 42 46 51 56 60 65 69 73 75 75 75 71 66 61 54 46 41 40 40 41 42 44 44 44 42 40 37 35 38 42 45 46 45 44 42 39 37 36 33 28 24 21
Wind_Direction
203 210 218 225 227 228 234 234 236 239 241 242 246 251 257 263 268 275 278 280 281 283 284 287 289 291 292 293 293 291 288 286 285 284 283 281 279 278 278 277 276 276 276 276
195 203 216 218 221 221 220 224 228 234 240 243 245 251 257 261 265 270 276 280 282 285 289 293 295 296 296 295 292 290 288 287 286 285 285 283 282 280 279 278 277 277 277 277
206 214 218 217 222 229 232 237 236 238 244 251 256 260 265 270 273 273 274 276 278 283 290 293 297 299 298 295 292 291 290 288 288 287 287 286 286 284 282 280 279 279 280 279
232 240 247 245 243 249 251 254 257 253 247 246 253 261 265 268 271 274 273 272 274 283 290 293 297 298 297 295 294 294 294 292 291 289 288 287 287 287 286 285 283 283 284 284
249 256 264 266 263 264 265 267 268 266 259 252 252 259 267 269 273 273 276 278 281 291 295 296 297 298 299 299 299 298 297 295 293 291 288 287 285 285 285 285 285 284 284 285
252 263 269 274 276 272 273 274 269 265 263 257 259 265 273 280 287 289 291 294 295 294 294 297 301 304 305 306 306 305 302 299 297 294 291 288 285 283 283 282 282 282 282 282
252 263 276 285 297 296 294 293 283 266 267 270 272 279 284 290 296 298 298 299 301 301 303 307 311 313 314 316 315 313 309 306 302 299 296 291 287 284 283 282 282 282 282 282
319 297 274 274 294 313 321 312 311 299 281 270 273 277 288 293 296 299 302 305 309 313 317 319 321 322 323 324 322 320 318 316 312 308 304 298 293 289 286 285 284 284 284 284
347 337 293 283 292 293 295 297 306 311 308 299 283 285 288 293 297 301 306 311 315 318 322 323 324 324 325 325 325 324 322 321 319 316 312 308 302 297 292 289 287 287 287 287
329 322 300 282 278 274 278 278 287 299 305 297 281 294 298 296 299 301 305 311 317 320 322 322 322 322 323 323 322 321 320 321 321 320 317 313 308 302 298 294 292 291 290 290
318 313 291 282 281 283 289 291 294 299 307 310 306 306 302 299 299 302 308 314 318 319 319 318 317 317 317 316 315 316 318 319 320 320 318 315 310 305 300 297 295 293 293 292
322 322 307 300 299 300 303 306 305 303 306 309 308 308 298 299 304 310 314 315 315 314 313 311 310 310 311 312 312 313 315 316 317 318 318 316 312 306 302 299 297 296 296 294
321 320 317 311 307 303 301 300 299 299 300 302 304 302 304 308 312 312 311 309 307 306 305 304 304 305 306 307 308 309 311 312 314 316 317 317 313 307 303 300 300 300 300 299
314 313 310 303 298 297 297 295 293 293 295 297 296 297 304 308 309 306 304 302 301 301 301 301 301 301 301 302 303 304 305 308 309 312 314 316 314 308 304 301 301 302 303 303
311 306 301 297 295 297 299 295 294 293 294 293 295 297 302 304 303 301 301 300 299 299 299 299 299 298 298 298 299 299 300 302 304 307 310 313 313 308 304 302 302 303 303 305
316 308 301 298 298 301 299 298 298 295 294 293 295 298 301 301 299 299 298 298 297 297 296 296 295 295 294 295 296 297 297 298 300 302 305 308 309 305 302 300 301 300 301 305
320 313 306 302 299 297 298 302 301 298 294 293 293 294 294 294 294 294 294 294 294 294 294 294 294 293 292 292 293 294 295 295 295 296 298 301 303 300 297 297 297 296 297 300
319 315 312 311 309 312 309 308 305 301 297 296 295 294 292 291 292 293 293 293 293 293 293 292 292 291 290 288 288 289 290 290 290 290 290 293 295 293 290 291 290 289 290 293
320 318 318 318 317 314 311 311 309 305 300 299 297 295 293 292 291 290 289 290 290 291 291 290 289 287 286 284 282 282 283 284 284 284 283 284 287 284 281 282 280 280 281 285
317 317 317 316 314 311 309 309 305 302 300 299 295 292 290 290 290 290 289 288 288 288 288 287 286 284 282 280 279 278 276 275 275 276 276 275 276 274 270 270 269 269 271 276
315 315 313 310 308 305 306 303 299 295 295 296 294 294 294 294 294 294 294 293 293 292 291 290 288 285 282 279 276 273 270 267 266 266 266 266 268 264 259 258 257 258 260 266
313 310 307 303 301 300 300 299 299 299 299 299 299 298 297 296 296 296 296 295 295 294 294 293 291 289 285 280 275 269 265 260 257 255 256 258 258 254 249 246 246 247 250 256
310 307 305 303 302 303 303 304 304 304 303 302 301 299 298 298 298 298 298 297 297 297 297 297 296 295 292 284 275 267 259 253 250 246 246 249 248 245 240 236 236 238 241 245
313 312 310 308 308 308 308 308 307 306 305 304 303 302 301 300 300 300 299 299 298 298 300 302 303 304 301 292 278 264 255 248 245 242 240 239 242 238 233 229 228 230 233 233
316 314 313 312 313 312 311 311 310 309 308 306 305 303 302 302 302 301 299 298 298 299 301 303 304 304 304 300 289 268 251 243 241 239 235 232 233 229 226 223 220 221 224 222
320 318 318 317 317 316 315 314 313 312 310 309 308 307 306 305 305 303 301 300 302 303 302 302 302 301 302 300 291 274 254 239 236 235 232 227 226 222 220 217 215 214 216 215